sat.trackr.live / text

‹ back to catalog

STARLINK-5877

NORAD 56354 · 2023-058AP

PAYLOAD ACTIVE UNKNOWN

§ Identity

Operator
Country
US
Launch date
2023-04-27
Launch site
AFWTR
Launch vehicle
Mass (kg)
RCS (m²)

Purposes: comms

External: N2YO · Heavens-Above · Gunter

§ Orbital elements

Epoch: 2026-05-24T23:47:30.173280Z

Period
95.63 min
Inclination
97.4475°
Eccentricity
0.0002593
Mean motion
15.05741674 rev/d
Perigee alt
547.4 km
Apogee alt
551.0 km
Semi-major
6,927.4 km
B*
-1.4012e-3
RAAN
145.9993°
Arg perigee
113.9683°
Mean anomaly
246.1815°
Rev number
16,967

§ Raw data

STARLINK-58771 56354U 23058AP  26144.99132145 -.00020270  00000+0 -14012-2 0  99942 56354  97.4475 145.9993 0002593 113.9683 246.1815 15.05741674169677

JSON: /api/v1/satellites/56354 · /tle

For live sub-satellite position, see the globe view (requires WebGL).

§ Visibility from observer

Set your observer location to see the next 7 days of passes ≥ 10°. The values pass through the URL so the page stays shareable.

No JS? Fill the form by hand. The geolocation button needs JavaScript.